COSMOS 1531

导读 | 豆包AI

COSMOS 1531是苏联/独联体(CIS)“宇宙”号卫星系列中的一颗人造卫星,于1984年1月11日发射升空。“宇宙”号卫星系列是世界上规模最大的卫星家族,涵盖多种应用卫星与试验任务。该卫星作为系列内成员,承担着空间技术试验或相关军用、科学探测任务,延续了该系列多用途、覆盖广的航天探索定位,是苏联航天活动在80年代的代表性产物之一。

Basic Information
目录编号:
14624
目录名称:
COSMOS 1531
国际标识:
1984-003A
轨道中心:
EARTH
卫星名称:
COSMOS 1531
卫星全名:
--
卫星状态:
在轨 (已飞行15403 天)
发射日期:
1984-01-11 UTC
国别 :
俄罗斯(独联体) (CIS)
星等 :
--
Orbit Information
数据来源 国际轨道数据 AOE轨道数据
星历时间 2026-03-13T15:12:06+0800
19小时前
查看轨道信息
2026-03-10T13:00:00+0800
3天前
查看轨道信息
半长轴 7369.079km 7369.095km
偏心率 0.0019872 0.0021076
轨道倾角 82.933° 82.933°
近地点辐角 20.008° 27.182°
升交点赤经 208.321° 210.601°
平近点角 359.726° 205.902°
近地点 976.298km 975.426km
远地点 1005.586km 1006.49km
周期 104.925分钟 104.925分钟
每日圈数 13.724071 13.724028
Detailed Information
使用方式:
暂无
2D Orbit Map
3D Orbit Map
Orbit Altitude Analysis Chart
Orbit Inclination Analysis Chart
Orbit Comprehensive Analysis Chart
View Comprehensive Chart